Location: Unspecified
(54.1780°N, 4.6260°W)
Time: 02:03:18
(UTC+00:00)

Daily predictions for brighter satellites

Satellite Brightness Start Highest point End
(mag) Time Altitude Azimuth Time Altitude Azimuth Time Altitude Azimuth
USA 308 2.2 00:00:07 10° W 00:03:04 68° SSW 00:07:10 10° ESE
Cosmos 1023 Rocket 4.5 00:02:03 16° SSW 00:06:00 68° ESE 00:11:05 10° NNE
SL-8 R/B 4.4 00:04:38 10° W 00:08:48 31° SSW 00:12:43 11° SE
Cosmos 1356 Rocket 4.5 00:06:16 10° NNW 00:09:55 33° W 00:12:41 15° SSW
Cosmos 1869 4.0 00:07:49 10° NNW 00:11:01 35° W 00:13:11 17° SSW
Cosmos 1782 Rocket 3.5 00:07:35 10° NNW 00:11:59 87° W 00:15:05 19° S
Meteor 2-5 Rocket 4.3 00:10:50 11° SSW 00:16:22 59° WNW 00:22:16 10° N
Cosmos 540 Rocket 3.4 00:15:43 10° NNW 00:20:49 79° WSW 00:24:54 16° SSE
PSLV R/B 4.0 00:17:31 10° N 00:22:09 69° WNW 00:25:56 15° SSW
CRYOSAT 2 4.4 00:21:43 17° SSE 00:25:27 82° E 00:30:22 10° N
Cosmos 2239 Rocket 4.5 00:19:53 10° NNW 00:26:05 87° WSW 00:31:05 16° S
Cosmos 304 Rocket 3.9 00:23:24 18° S 00:26:48 60° ESE 00:31:31 10° NNE
Cosmos 1818 4.2 00:21:29 10° WSW 00:26:52 59° NW 00:32:18 10° NE
Cosmos 1300 Rocket 4.0 00:23:25 10° NNW 00:27:37 51° W 00:30:32 18° SSW
Cosmos 1934 Rocket 4.3 00:21:21 10° N 00:27:41 64° ENE 00:33:29 12° SSE
USA 59 Rocket 2.6 00:28:33 10° NW 00:30:23 15° N 00:32:17 10° NE
Cosmos 1346 Rocket 3.2 00:28:35 19° SSE 00:30:52 45° E 00:34:22 10° NNE
Cosmos 468 Rocket 4.0 00:30:23 10° NNW 00:35:32 82° ENE 00:40:19 12° SSE
CZ-2C R/B 2.9 00:40:44 17° S 00:44:41 56° W 00:50:00 10° NNW
Landsat 5 3.8 00:41:19 10° NNE 00:44:56 46° E 00:47:27 18° SSE
Cosmos 405 Rocket 3.7 00:43:35 15° SE 00:45:17 24° E 00:47:48 10° NE
Cosmos 1378 Rocket 4.5 00:42:26 15° SSE 00:45:35 38° E 00:49:35 10° NNE
USA 215 3.5 00:39:56 10° SE 00:46:14 49° SW 00:52:33 10° WNW
COSMOS 2455 3.5 00:42:18 10° WSW 00:48:13 57° NW 00:54:10 10° NE
Cosmos 1697 Rocket 4.1 00:44:14 12° SSE 00:48:16 25° ESE 00:52:45 10° NE
SL-24 R/B - RUBIN 2 4.0 00:47:13 10° NW 00:51:41 69° NE 00:56:31 10° SE
Cosmos 1339 Rocket 4.5 00:48:25 16° S 00:53:20 79° E 00:59:31 10° NNE
Cosmos 2251 Rocket 4.3 00:51:58 15° S 00:55:56 41° ESE 01:00:56 10° NE
Cosmos 2084 Rocket 3.8 00:53:26 19° SSW 00:55:58 44° SE 00:59:53 10° ENE
Cosmos 371 Rocket 3.3 00:52:17 16° SSW 00:56:07 88° ESE 01:00:58 10° NNE
Cosmos 2227 Rocket 2.7 00:51:00 10° NNW 00:56:37 61° NE 01:02:12 10° SE
Lacrosse 5 rocket 2.0 00:55:06 10° W 00:58:01 25° SW 00:59:11 21° S
NOSS 3-2 (A) 4.1 00:51:40 10° NW 00:58:29 77° NE 01:06:53 10° SE
Cosmos 841 Rocket 3.7 00:57:38 10° NNW 01:02:51 73° ENE 01:08:00 10° SSE
Nadezhda 3 Rocket 4.1 00:57:56 16° SSW 01:03:08 76° WNW 01:09:31 10° N
NOSS 3-1 (A) 3.8 01:00:24 10° WSW 01:05:22 58° NNW 01:11:36 10° NE
Meteor 2-19 Rocket 4.5 01:01:34 16° SSW 01:06:34 82° WNW 01:12:40 10° N
GEOS 3 Rocket 3.9 01:08:38 10° SSE 01:13:50 51° SW 01:19:06 10° NW
ACS3 Solar Sail 1.8 01:08:48 10° N 01:14:25 72° WNW 01:19:23 14° SSW
Cosmos 407 Rocket 3.5 01:11:33 14° SSW 01:15:54 79° WNW 01:21:05 10° NNE
SL-4 R/B 2.0 01:14:42 10° W 01:17:36 32° SSW 01:20:26 10° SE
Cosmos 1140 Rocket 4.4 01:12:54 10° SW 01:17:46 43° NW 01:22:39 10° NNE
Iridium 82 4.0 01:17:09 22° SSW 01:18:48 68° W 01:21:39 10° N
IDEFIX/ARIANE 42P 4.0 01:14:25 10° NNE 01:18:57 29° E 01:23:27 10° SSE
Cosmos 1674 Rocket 4.0 01:15:36 15° S 01:19:11 55° E 01:23:30 10° NNE
Cosmos 1025 Rocket 3.5 01:18:43 14° S 01:22:17 54° E 01:26:32 10° NNE
SJ 16-02 1.5 01:20:45 15° SW 01:24:13 67° WNW 01:28:30 10° NNE
USA 308 3.3 01:21:35 10° W 01:24:50 32° SSW 01:28:36 10° SSE
Cosmos 2297 Rocket 2.6 01:20:10 10° NW 01:25:34 47° WSW 01:30:22 13° S
NOSS 2-2 (E) 4.4 01:26:48 10° WNW 01:30:00 28° SW 01:33:17 13° S
Cosmos 2369 Rocket 4.3 01:25:53 10° W 01:30:22 24° NNW 01:34:53 10° NNE
ATLAS 5 CENTAUR R/B 3.9 01:29:57 10° NW 01:32:24 19° N 01:35:07 10° NE
CENTAUR R/B 3.5 01:25:51 10° NW 01:33:40 51° SW 01:42:38 10° SSE
Cosmos 2219 4.3 01:28:30 10° NNW 01:33:59 47° NE 01:39:28 10° ESE
Cosmos 2263 Rocket 2.4 01:28:33 10° NNW 01:34:10 73° NE 01:39:48 10° SE
ATLAS 3B R/B 3.5 01:28:13 14° S 01:34:40 48° ESE 01:42:08 10° NE
Cosmos 1605 Rocket 4.0 01:30:45 10° NNW 01:37:00 77° W 01:42:54 11° S
Cosmos 1980 Rocket 3.6 01:33:29 10° SSE 01:38:13 28° ESE 01:42:58 10° NE
Okean 2 Rocket 3.0 01:33:56 10° NNW 01:38:20 84° WSW 01:42:26 12° S
CZ-2C R/B 4.5 01:34:08 10° N 01:38:41 30° WNW 01:43:01 10° WSW
CZ-4C R/B 3.1 01:35:39 10° NNE 01:39:14 75° WNW 01:41:58 16° SSW
Cosmos 1954 Rocket 4.1 01:35:23 15° SSW 01:39:43 70° ESE 01:44:52 10° NNE
Cosmos 921 Rocket 4.4 01:37:37 10° WSW 01:41:18 29° NW 01:44:58 10° N
Cosmos 1190 Rocket 4.0 01:39:05 14° SSW 01:43:35 85° ESE 01:48:49 10° NNE
Okean 1 Rocket 3.0 01:39:31 10° NNW 01:43:52 81° W 01:47:57 11° S
BREEZE-M DEB (TANK) 4.5 01:42:51 10° W 01:45:48 13° WSW 01:47:25 11° SW
Cosmos 2151 Rocket 4.0 01:46:03 10° NNW 01:50:24 51° W 01:54:11 13° SSW
NOSS 3-2 (C) 4.2 01:44:36 10° NW 01:51:25 75° NE 01:59:49 10° ESE
Cosmos 1656 4.2 01:46:52 10° SW 01:52:18 57° NW 01:57:51 10° NNE
Cosmos 2242 Rocket 4.3 01:49:35 13° SW 01:53:19 45° WNW 01:57:37 10° N
DELTA 2 DEB (DPAF) 3.6 01:53:37 10° NNE 01:57:09 68° WNW 02:00:08 14° SSW
CZ-2D R/B 4.5 01:54:03 10° NE 01:57:32 17° E 02:00:58 10° SE
Aureole 3 4.5 01:54:52 12° SSW 02:00:19 58° WNW 02:05:23 10° N
Cosmos 2058 4.4 02:01:26 10° SSE 02:04:51 30° E 02:08:18 10° NNE
Cosmos 2082 4.3 02:00:04 10° NNW 02:05:41 62° NE 02:11:19 10° SE
Spot 1 4.4 02:04:04 10° NNE 02:08:57 84° ESE 02:13:26 11° SSW
Geosat 4.1 02:07:53 10° NE 02:12:56 77° ESE 02:17:49 11° SSW
NOSS 2-3 (E) 4.1 02:11:44 10° NW 02:16:25 87° SW 02:22:40 10° SE
MOS 1-B Rocket 4.1 02:11:57 10° NNE 02:17:47 69° ESE 02:23:22 10° S
Cosmos 405 Rocket 3.8 02:15:27 10° WSW 02:17:52 22° WNW 02:20:19 10° NNW
Cosmos 1814 Rocket 4.3 02:13:30 10° NNW 02:18:51 74° ENE 02:24:06 10° SSE
Cosmos 374 Rocket 4.4 02:15:08 10° WSW 02:18:55 73° NW 02:22:53 10° NE
USA 59 Rocket 1.6 02:17:03 10° NW 02:19:45 29° NNE 02:22:52 10° E
Cosmos 2221 Rocket 3.8 02:18:28 11° SSW 02:22:51 67° WNW 02:27:24 10° N
Cosmos 1459 Rocket 4.1 02:18:51 10° N 02:25:08 87° E 02:31:28 10° S
Cosmos 1455 Rocket 3.2 02:21:07 10° NNW 02:25:26 61° W 02:29:44 10° S
Meteor 1-27 4.5 02:20:31 10° NNW 02:26:12 58° W 02:31:53 10° S
NOSS 2-3 (C) 4.1 02:25:06 10° NW 02:29:40 87° NE 02:36:01 10° SE
USA 229 DEB 3.7 02:23:52 10° SW 02:30:02 86° NW 02:37:05 10° NE
USA 229 3.7 02:23:53 10° SW 02:30:03 87° NW 02:37:08 10° NE
Cosmos 676 Rocket 4.2 02:25:10 10° SW 02:30:21 69° WNW 02:35:32 10° NNE
ADEOS Rocket 2.9 02:24:24 10° NNE 02:30:27 86° WNW 02:36:01 10° SSW
Cosmos 968 Rocket 3.6 02:25:51 10° SSW 02:31:06 85° ESE 02:36:22 10° NNE
Cosmos 1697 Rocket 2.8 02:26:05 10° SW 02:31:42 75° NW 02:37:21 10° NNE
Resurs 1-4 Rocket 3.6 02:27:07 10° NNE 02:31:49 32° E 02:36:29 10° SSE
Sich 1 Rocket 4.4 02:28:25 10° NNW 02:32:33 36° W 02:36:39 10° SSW
Cosmos 332 Rocket 4.3 02:28:58 10° SW 02:33:36 51° WNW 02:38:16 10° NNE
FENGYUN 3A 3.8 02:28:34 10° NNE 02:33:58 81° ESE 02:39:20 10° SSW
Cosmos 2084 Rocket 4.3 02:30:49 10° WSW 02:34:43 45° NNW 02:38:42 10° NE
Cosmos 1437 Rocket 2.8 02:31:39 10° NNW 02:34:56 45° W 02:38:11 10° S
DMSP B5D2-2 4.3 02:30:01 10° SSE 02:35:17 80° ENE 02:40:34 10° NNW
Cosmos 2123 Rocket 4.4 02:31:02 10° S 02:37:14 65° E 02:43:28 10° NNE
Cosmos 2251 Rocket 4.4 02:33:02 10° SW 02:38:09 44° NW 02:43:16 10° NNE
Cosmos 1782 3.3 02:35:36 10° NNW 02:38:51 35° W 02:42:02 10° SSW
Cosmos 2227 Rocket 3.0 02:35:26 10° NW 02:40:22 32° WSW 02:45:17 10° SSW
Cosmos 2173 Rocket 4.1 02:34:27 10° NNW 02:40:44 72° W 02:46:52 10° S
SL-24 DEB 4.3 02:38:10 10° S 02:42:34 61° W 02:47:01 10° N
MOZ.5/SAFIR/RUBIN 5/SL-8 3.8 02:39:48 10° SSE 02:44:26 86° WSW 02:49:09 10° NNW
Cosmos 2333 Rocket 4.3 02:42:01 10° SE 02:45:59 20° E 02:49:58 10° NE
Cosmos 1544 Rocket 3.9 02:43:01 10° N 02:47:26 69° ENE 02:51:51 10° SSE
NOSS 3-2 (A) 4.4 02:42:30 10° NW 02:49:13 42° WSW 02:57:10 10° S
Cosmos 2292 Rocket 4.0 02:46:36 10° SSW 02:50:19 49° WNW 02:55:05 10° N
NPP 3.7 02:45:01 10° NNE 02:50:28 80° WNW 02:55:51 10° SSW
Envisat 3.6 02:45:44 10° NNE 02:50:44 54° E 02:55:41 10° S
Gbstr 26 Del rocket 4.3 02:45:23 10° WSW 02:52:08 72° S 02:59:51 10° E
H-2A R/B 3.2 02:47:20 10° NNE 02:52:10 39° E 02:56:51 10° SSE
Cosmos 1844 4.3 02:48:49 10° NNW 02:54:33 65° NE 03:00:11 10° SE
Cosmos 1727 Rocket 4.2 02:48:25 10° SSW 02:54:33 64° WNW 03:00:43 10° N
Cosmos 1862 3.1 02:51:48 10° SSW 02:55:19 64° WNW 02:58:53 10° N
ACS3 Solar Sail 3.6 02:52:10 10° NNW 02:55:46 18° NW 02:59:25 10° W
Cosmos 2016 Rocket 4.1 02:50:18 10° NNW 02:56:36 88° WSW 03:02:56 10° S
